Weather History for Idaho Falls, ID

Change the Weather History Date:

Wednesday, March 20, 2013

  Actual Average Record
Temperature  
Mean Temperature 38 °F 38 °F  
Max Temperature 45 °F 48 °F 68 °F (1999)
Min Temperature 31 °F 27 °F -3 °F (2000)
Degree Days  
Heating Degree Days 27 27  
Month to date heating degree days 599 622  
Since 1 July heating degree days 6162 6424  
Cooling Degree Days 0 0  
Month to date cooling degree days 0 0  
Year to date cooling degree days 0 0  
Moisture  
Dew Point 32 °F    
Average Humidity 75    
Maximum Humidity 96    
Minimum Humidity 54    
Precipitation  
Precipitation 0.30 in 0.03 in 0.41 in (1981)
Month to date precipitation 0.42 0.55  
Year to date precipitation 0.82 1.90  
Sea Level Pressure  
Sea Level Pressure 29.90 in    
Wind  
Wind Speed 9 mph (SSW)    
Max Wind Speed 35 mph    
Max Gust Speed 41 mph    
Visibility 7 miles    
Events Rain , Snow , Thunderstorm    
T = Trace of Precipitation, MM = Missing Value Source: NWS Daily Summary

Daily Weather History Graph

Daily Weather History Graph

Search for Another Location

Airport:

Trip Planner

Search our weather history database for the weather conditions in past years. The results will help you decide how hot, cold, wet, or windy it might be!

Date:

Astronomy

Mar. 20, 2013 Rise Set
Actual Time 7:30 AM MDT 7:41 PM MDT
Civil Twilight 7:02 AM MDT 8:09 PM MDT
Nautical Twilight 6:28 AM MDT 8:43 PM MDT
Astronomical Twilight 5:54 AM MDT 9:17 PM MDT
Moon 1:09 PM MDT (3/20) 3:23 AM MDT (3/20)
Length of Visible Light 13h 07m
Length of Day
12h 10m
First Quarter, 60% of the Moon is Illuminated
Mar 20
First Quarter
Mar 27
Full
Apr 2
Last Quarter
Apr 10
New
Apr 18
First Quarter

Hourly Weather History & Observations

Time (MDT) Temp. Windchill Dew Point Humidity Pressure Visibility Wind Dir Wind Speed Gust Speed Precip Events Conditions
12:53 AM 30.9 °F 27.5 °F 21.9 °F 69% 30.14 in 10.0 mi NW 3.5 mph - N/A   Partly Cloudy
1:53 AM 32.0 °F 26.4 °F 24.1 °F 73% 30.11 in 10.0 mi NNW 5.8 mph - N/A   Mostly Cloudy
2:53 AM 33.1 °F 27.7 °F 23.0 °F 66% 30.07 in 10.0 mi North 5.8 mph - N/A   Overcast
3:53 AM 32.0 °F 26.4 °F 24.1 °F 73% 30.03 in 10.0 mi NNW 5.8 mph - N/A   Overcast
4:53 AM 33.1 °F 26.1 °F 21.9 °F 64% 30.00 in 10.0 mi NNW 8.1 mph - N/A   Overcast
5:53 AM 33.1 °F 30.0 °F 24.1 °F 70% 29.99 in 10.0 mi NNW 3.5 mph - N/A   Overcast
6:53 AM 34.0 °F - 24.1 °F 67% 30.00 in 10.0 mi Calm Calm - N/A   Overcast
7:14 AM 37.4 °F 34.9 °F 21.2 °F 52% 29.97 in 10.0 mi SE 3.5 mph - N/A   Overcast
7:53 AM 39.0 °F 29.6 °F 25.0 °F 57% 29.99 in 10.0 mi SW 18.4 mph - N/A   Overcast
7:57 AM 37.4 °F 27.8 °F 26.6 °F 65% 29.99 in 9.0 mi SW 17.3 mph - 0.00 in Rain Light Rain
8:53 AM 35.1 °F 27.9 °F 30.9 °F 85% 30.02 in 1.0 mi SSW 9.2 mph - 0.00 in Snow Light Snow
9:20 AM 33.8 °F 27.7 °F 32.0 °F 93% 29.98 in 2.5 mi South 6.9 mph - 0.01 in Snow Light Snow
9:42 AM 33.8 °F 27.7 °F 32.0 °F 93% 29.98 in 2.0 mi South 6.9 mph - 0.02 in Snow Light Snow
9:49 AM 33.8 °F 28.6 °F 32.0 °F 93% 29.98 in 1.5 mi South 5.8 mph - 0.02 in Snow Light Snow
9:53 AM 34.0 °F 28.0 °F 32.0 °F 92% 30.02 in 1.5 mi South 6.9 mph - 0.02 in Snow Light Snow
10:53 AM 34.0 °F 29.8 °F 32.0 °F 92% 30.01 in 0.8 mi SSW 4.6 mph - 0.04 in Snow Light Snow
11:38 AM 35.6 °F 30.7 °F 33.8 °F 93% 29.96 in 3.0 mi SSW 5.8 mph - 0.01 in Snow Light Snow
11:53 AM 36.0 °F 29.6 °F 33.1 °F 89% 30.01 in 3.0 mi SSW 8.1 mph - 0.02 in Rain Light Rain
12:01 PM 35.6 °F 29.9 °F 33.8 °F 93% 29.95 in 3.0 mi SSW 6.9 mph - 0.00 in Rain Light Rain
12:23 PM 37.4 °F 30.8 °F 33.8 °F 87% 29.94 in 6.0 mi South 9.2 mph - 0.00 in Rain Light Rain
12:53 PM 37.9 °F 31.5 °F 35.1 °F 89% 29.97 in 5.0 mi South 9.2 mph - 0.00 in Rain Light Rain
1:53 PM 37.9 °F 33.5 °F 36.0 °F 93% 29.96 in 4.0 mi SW 5.8 mph - 0.00 in   Overcast
2:07 PM 39.2 °F 35.9 °F 35.6 °F 87% 29.91 in 1.5 mi SW 4.6 mph - N/A   Overcast
2:40 PM 39.2 °F 35.0 °F 37.4 °F 93% 29.89 in 6.0 mi SSW 5.8 mph - 0.00 in Rain Light Rain
2:53 PM 39.9 °F - 37.9 °F 93% 29.92 in 6.0 mi Calm Calm - 0.00 in Rain Light Rain
3:43 PM 42.8 °F 41.1 °F 37.4 °F 81% 29.86 in 10.0 mi South 3.5 mph - 0.01 in Rain Light Rain
3:53 PM 42.1 °F 38.4 °F 37.9 °F 85% 29.89 in 10.0 mi SSE 5.8 mph - 0.01 in   Overcast
4:53 PM 44.1 °F 39.5 °F 39.0 °F 82% 29.85 in 10.0 mi SSW 8.1 mph - 0.00 in   Overcast
5:53 PM 44.1 °F 37.7 °F 37.9 °F 79% 29.83 in 10.0 mi South 12.7 mph 21.9 mph 0.01 in   Overcast
6:53 PM 44.1 °F 37.4 °F 37.0 °F 76% 29.80 in 10.0 mi South 13.8 mph - 0.00 in   Overcast
7:22 PM 44.6 °F 38.1 °F 37.4 °F 76% 29.78 in 10.0 mi South 13.8 mph - N/A   Overcast
7:38 PM 44.6 °F 38.8 °F 37.4 °F 76% 29.77 in 10.0 mi South 11.5 mph - N/A   Overcast
7:53 PM 43.0 °F 34.8 °F 36.0 °F 76% 29.77 in 10.0 mi South 18.4 mph 24.2 mph N/A   Overcast
8:53 PM 42.1 °F 37.1 °F 35.1 °F 76% 29.74 in 10.0 mi South 8.1 mph - N/A   Mostly Cloudy
9:53 PM 42.1 °F 36.1 °F 34.0 °F 73% 29.70 in 10.0 mi SSE 10.4 mph - N/A   Clear
10:43 PM 39.2 °F 27.6 °F 35.6 °F 87% 29.73 in 4.0 mi West 28.8 mph 36.8 mph 0.06 in Rain , Thunderstorm Rain
10:46 PM 37.4 °F 24.8 °F 33.8 °F 87% 29.74 in 2.5 mi West 31.1 mph 41.4 mph 0.09 in Rain , Thunderstorm Rain
10:51 PM 35.6 °F 24.5 °F 32.0 °F 87% 29.74 in 1.2 mi West 20.7 mph 41.4 mph 0.13 in Rain , Thunderstorm Heavy Rain
10:53 PM 36.0 °F 25.6 °F 32.0 °F 86% 29.78 in 1.2 mi West 18.4 mph 41.4 mph 0.14 in Rain , Thunderstorm Heavy Rain
11:05 PM 37.4 °F 30.3 °F 33.8 °F 87% 29.71 in 3.0 mi South 10.4 mph - 0.06 in Rain , Thunderstorm Rain
11:15 PM 37.4 °F 30.3 °F 33.8 °F 87% 29.70 in 10.0 mi South 10.4 mph - 0.06 in Rain Light Rain
11:24 PM 37.4 °F 30.3 °F 33.8 °F 87% 29.69 in 10.0 mi South 10.4 mph - 0.06 in   Mostly Cloudy
11:53 PM 37.0 °F 28.5 °F 34.0 °F 89% 29.70 in 10.0 mi South 13.8 mph - 0.06 in   Partly Cloudy